| time (UTC) | temp C | wind direction | speed KPH | gust KPH | rain 1hr cm | rain 24hr cm | rain mn cm | humidity % | barometer mb |
| 20260505125030 | 11 | 170 | 0.0 | 0.0 | 0.00 | 0.00 | 0.00 | 79 | 1011.4 |
| 20260505124601 | 11 | 170 | 0.0 | 0.0 | 0.00 | 0.00 | 0.00 | 80 | 1011.4 |
| 20260505124030 | 10 | 170 | 0.0 | 0.0 | 0.00 | 0.00 | 0.00 | 80 | 1011.5 |
| 20260505123549 | 10 | 170 | 0.0 | 0.0 | 0.00 | 0.00 | 0.00 | 80 | 1011.5 |
| 20260505123014 | 10 | 170 | 0.0 | 0.0 | 0.00 | 0.00 | 0.00 | 80 | 1011.4 |
| 20260505122539 | 10 | 170 | 0.0 | 0.0 | 0.00 | 0.00 | 0.00 | 80 | 1011.4 |
| 20260505122101 | 10 | 170 | 0.0 | 0.0 | 0.00 | 0.00 | 0.00 | 80 | 1011.4 |
| 20260505121534 | 9 | 170 | 0.0 | 0.0 | 0.00 | 0.00 | 0.00 | 80 | 1011.3 |
| 20260505121054 | 9 | 170 | 0.0 | 0.0 | 0.00 | 0.00 | 0.00 | 81 | 1011.3 |
| 20260505120519 | 9 | 170 | 0.0 | 0.0 | 0.00 | 0.00 | 0.00 | 81 | 1011.3 |
| 20260505120046 | 9 | 170 | 0.0 | 0.0 | 0.00 | 0.00 | 0.00 | 81 | 1011.1 |
| 20260505115511 | 8 | 170 | 0.0 | 0.0 | 0.00 | 0.00 | 0.00 | 82 | 1011.1 |
| 20260505115042 | 8 | 170 | 0.0 | 0.0 | 0.00 | 0.00 | 0.00 | 82 | 1011.1 |
| 20260505114503 | 8 | 170 | 0.0 | 0.0 | 0.00 | 0.00 | 0.00 | 82 | 1011.0 |
| 20260505114028 | 8 | 170 | 0.0 | 0.0 | 0.00 | 0.00 | 0.00 | 81 | 1011.0 |
| 20260505113552 | 8 | 170 | 0.0 | 0.0 | 0.00 | 0.00 | 0.00 | 81 | 1011.0 |
| 20260505113023 | 8 | 170 | 0.0 | 0.0 | 0.00 | 0.00 | 0.00 | 81 | 1011.0 |
| 20260505112553 | 8 | 170 | 0.0 | 0.0 | 0.00 | 0.00 | 0.00 | 80 | 1011.0 |
| 20260505112027 | 8 | 170 | 0.0 | 0.0 | 0.00 | 0.00 | 0.00 | 80 | 1011.0 |
| 20260505111552 | 8 | 170 | 0.0 | 0.0 | 0.00 | 0.00 | 0.00 | 79 | 1011.0 |
| 20260505111025 | 9 | 170 | 0.0 | 0.0 | 0.00 | 0.00 | 0.00 | 79 | 1011.0 |
| 20260505110554 | 9 | 170 | 0.0 | 0.0 | 0.00 | 0.00 | 0.00 | 78 | 1011.0 |
| 20260505102058 | 11 | 165 | 0.0 | 0.0 | 0.00 | 0.00 | 0.00 | 72 | 1011.0 |
| 20260505101533 | 11 | 165 | 0.0 | 0.0 | 0.00 | 0.00 | 0.00 | 70 | 1010.8 |
| 20260505101051 | 11 | 165 | 0.0 | 0.0 | 0.00 | 0.00 | 0.00 | 70 | 1010.8 |
| 20260505100515 | 12 | 165 | 0.0 | 0.0 | 0.00 | 0.00 | 0.00 | 69 | 1010.8 |
| 20260505100038 | 12 | 165 | 0.0 | 0.0 | 0.00 | 0.00 | 0.00 | 69 | 1010.7 |
| 20260505095505 | 12 | 165 | 0.0 | 0.0 | 0.00 | 0.00 | 0.00 | 70 | 1010.7 |
| 20260505095033 | 12 | 165 | 0.0 | 0.0 | 0.00 | 0.00 | 0.00 | 66 | 1010.7 |
| 20260505094616 | 12 | 165 | 0.0 | 0.0 | 0.00 | 0.00 | 0.00 | 67 | 1010.7 |
| 20260505094029 | 12 | 165 | 0.0 | 0.0 | 0.00 | 0.00 | 0.00 | 66 | 1010.6 |
| 20260505093552 | 12 | 165 | 0.0 | 0.0 | 0.00 | 0.00 | 0.00 | 67 | 1010.6 |
| 20260505093014 | 12 | 165 | 0.0 | 0.0 | 0.00 | 0.00 | 0.00 | 66 | 1010.7 |
| 20260505092545 | 12 | 165 | 0.0 | 0.0 | 0.00 | 0.00 | 0.00 | 64 | 1010.7 |
| 20260505092011 | 12 | 165 | 0.0 | 0.0 | 0.00 | 0.00 | 0.00 | 63 | 1010.7 |
| 20260505091543 | 13 | 165 | 0.0 | 0.0 | 0.00 | 0.00 | 0.00 | 64 | 1010.6 |
| 20260505091010 | 12 | 165 | 0.0 | 0.0 | 0.00 | 0.00 | 0.00 | 63 | 1010.6 |
| 20260505090539 | 12 | 165 | 0.0 | 1.6 | 0.00 | 0.00 | 0.00 | 64 | 1010.6 |
| 20260505090005 | 12 | 165 | 0.0 | 1.6 | 0.00 | 0.00 | 0.00 | 65 | 1010.6 |
| 20260505085533 | 12 | 165 | 0.0 | 0.0 | 0.00 | 0.00 | 0.00 | 65 | 1010.6 |
| 20260505085059 | 12 | 165 | 0.0 | 0.0 | 0.00 | 0.00 | 0.00 | 66 | 1010.6 |
| 20260505084537 | 12 | 165 | 0.0 | 0.0 | 0.00 | 0.00 | 0.00 | 68 | 1010.6 |
| 20260505084052 | 12 | 165 | 0.0 | 0.0 | 0.00 | 0.00 | 0.00 | 65 | 1010.6 |
| 20260505083523 | 12 | 165 | 0.0 | 0.0 | 0.00 | 0.00 | 0.00 | 68 | 1010.6 |
| 20260505083057 | 12 | 165 | 0.0 | 0.0 | 0.00 | 0.00 | 0.00 | 67 | 1010.5 |
| 20260505082524 | 12 | 165 | 0.0 | 0.0 | 0.00 | 0.00 | 0.00 | 66 | 1010.5 |
| 20260505082049 | 12 | 165 | 0.0 | 1.6 | 0.00 | 0.00 | 0.00 | 68 | 1010.5 |
| 20260505081506 | 12 | 165 | 0.0 | 1.6 | 0.00 | 0.00 | 0.00 | 66 | 1010.2 |
| 20260505081036 | 12 | 152 | 0.0 | 0.0 | 0.00 | 0.00 | 0.00 | 65 | 1010.2 |
| 20260505080558 | 12 | 152 | 0.0 | 0.0 | 0.00 | 0.00 | 0.00 | 64 | 1010.2 |
| 20260505080038 | 12 | 152 | 0.0 | 0.0 | 0.00 | 0.00 | 0.00 | 65 | 1010.2 |
| 20260505075549 | 12 | 152 | 0.0 | 0.0 | 0.00 | 0.00 | 0.00 | 66 | 1010.2 |
| 20260505075013 | 12 | 152 | 0.0 | 0.0 | 0.00 | 0.00 | 0.00 | 67 | 1010.2 |
| 20260505074541 | 12 | 152 | 0.0 | 0.0 | 0.00 | 0.00 | 0.00 | 65 | 1010.4 |
| 20260505074005 | 12 | 152 | 0.0 | 0.0 | 0.00 | 0.00 | 0.00 | 67 | 1010.4 |
| 20260505073531 | 12 | 152 | 0.0 | 0.0 | 0.00 | 0.00 | 0.00 | 68 | 1010.4 |
| 20260505073103 | 12 | 152 | 0.0 | 0.0 | 0.00 | 0.00 | 0.00 | 67 | 1010.4 |
| 20260505072528 | 12 | 152 | 0.0 | 0.0 | 0.00 | 0.00 | 0.00 | 68 | 1010.7 |
| 20260505072049 | 12 | 152 | 0.0 | 0.0 | 0.00 | 0.00 | 0.00 | 67 | 1010.7 |
| 20260505071523 | 12 | 152 | 0.0 | 0.0 | 0.00 | 0.00 | 0.00 | 68 | 1010.7 |
| 20260505071051 | 12 | 152 | 0.0 | 0.0 | 0.00 | 0.00 | 0.00 | 67 | 1010.7 |
| 20260505070528 | 12 | 152 | 0.0 | 0.0 | 0.00 | 0.00 | 0.00 | 67 | 1010.7 |
| 20260505070049 | 12 | 152 | 0.0 | 0.0 | 0.00 | 0.00 | 0.00 | 66 | 1010.7 |
| 20260505065523 | 12 | 152 | 0.0 | 0.0 | 0.00 | 0.00 | 0.00 | 67 | 1010.8 |
| 20260505065048 | 12 | 152 | 0.0 | 0.0 | 0.00 | 0.00 | 0.00 | 68 | 1010.8 |
| 20260505064520 | 12 | 152 | 0.0 | 1.6 | 0.00 | 0.00 | 0.00 | 69 | 1011.0 |
| 20260505064047 | 12 | 152 | 0.0 | 1.6 | 0.00 | 0.00 | 0.00 | 70 | 1011.0 |
| 20260505063518 | 12 | 152 | 0.0 | 0.0 | 0.00 | 0.00 | 0.00 | 71 | 1011.0 |
| 20260505063042 | 12 | 152 | 0.0 | 0.0 | 0.00 | 0.00 | 0.00 | 71 | 1011.1 |
| 20260505062507 | 12 | 152 | 0.0 | 0.0 | 0.00 | 0.00 | 0.00 | 70 | 1011.1 |
| 20260505062042 | 12 | 152 | 0.0 | 0.0 | 0.00 | 0.00 | 0.00 | 71 | 1011.1 |
| 20260505061504 | 12 | 152 | 0.0 | 0.0 | 0.00 | 0.00 | 0.00 | 71 | 1011.1 |
| 20260505061032 | 12 | 152 | 0.0 | 0.0 | 0.00 | 0.00 | 0.00 | 69 | 1011.1 |
| 20260505060557 | 12 | 152 | 0.0 | 0.0 | 0.00 | 0.00 | 0.00 | 71 | 1011.1 |
| 20260505060034 | 12 | 152 | 0.0 | 0.0 | 0.00 | 0.00 | 0.00 | 70 | 1011.0 |
| 20260505055557 | 12 | 152 | 0.0 | 0.0 | 0.00 | 0.00 | 0.00 | 71 | 1011.0 |
| 20260505055031 | 12 | 152 | 0.0 | 0.0 | 0.00 | 0.00 | 0.00 | 70 | 1011.0 |
| 20260505054558 | 12 | 152 | 0.0 | 0.0 | 0.00 | 0.00 | 0.00 | 70 | 1011.0 |
| 20260505054024 | 12 | 152 | 0.0 | 0.0 | 0.00 | 0.00 | 0.00 | 70 | 1010.9 |
| 20260505053544 | 13 | 152 | 0.0 | 0.0 | 0.00 | 0.00 | 0.00 | 69 | 1010.9 |
| 20260505053024 | 13 | 152 | 0.0 | 0.0 | 0.00 | 0.00 | 0.00 | 67 | 1011.1 |
| 20260505052541 | 13 | 152 | 0.0 | 0.0 | 0.00 | 0.00 | 0.00 | 70 | 1011.1 |
| 20260505052011 | 13 | 152 | 0.0 | 0.0 | 0.00 | 0.00 | 0.00 | 67 | 1011.1 |
| 20260505051545 | 13 | 152 | 0.0 | 0.0 | 0.00 | 0.00 | 0.00 | 68 | 1011.3 |
| 20260505051008 | 13 | 152 | 0.0 | 0.0 | 0.00 | 0.00 | 0.00 | 69 | 1011.3 |
| 20260505050542 | 13 | 152 | 0.0 | 0.0 | 0.00 | 0.00 | 0.00 | 68 | 1011.3 |
| 20260505041525 | 13 | 152 | 0.0 | 0.0 | 0.00 | 0.00 | 0.00 | 66 | 1011.4 |
| 20260505041050 | 13 | 152 | 0.0 | 3.2 | 0.00 | 0.00 | 0.00 | 66 | 1011.4 |
| 20260505040524 | 13 | 152 | 0.0 | 3.2 | 0.00 | 0.00 | 0.00 | 66 | 1011.4 |
| 20260505040039 | 13 | 153 | 0.0 | 1.6 | 0.00 | 0.00 | 0.00 | 67 | 1011.6 |
| 20260505035602 | 13 | 153 | 0.0 | 1.6 | 0.00 | 0.00 | 0.00 | 68 | 1011.6 |
| 20260505035503 | 13 | 153 | 0.0 | 1.6 | 0.00 | 0.00 | 0.00 | 69 | 1011.6 |
| 20260505035027 | 13 | 153 | 0.0 | 0.0 | 0.00 | 0.00 | 0.00 | 70 | 1011.6 |
| 20260505034551 | 13 | 153 | 0.0 | 0.0 | 0.00 | 0.00 | 0.00 | 68 | 1011.7 |
| 20260505034014 | 13 | 153 | 0.0 | 0.0 | 0.00 | 0.00 | 0.00 | 69 | 1011.7 |
| 20260505033543 | 13 | 153 | 0.0 | 0.0 | 0.00 | 0.00 | 0.00 | 71 | 1011.7 |
| 20260505033026 | 13 | 153 | 0.0 | 0.0 | 0.00 | 0.00 | 0.00 | 69 | 1011.8 |
| 20260505032544 | 13 | 153 | 0.0 | 0.0 | 0.00 | 0.00 | 0.00 | 68 | 1011.8 |
| 20260505032010 | 13 | 153 | 0.0 | 0.0 | 0.00 | 0.00 | 0.00 | 69 | 1011.8 |
| 20260505031554 | 13 | 153 | 0.0 | 0.0 | 0.00 | 0.00 | 0.00 | 70 | 1011.6 |
| 20260505031010 | 13 | 153 | 0.0 | 0.0 | 0.00 | 0.00 | 0.00 | 70 | 1011.6 |
| 20260505030537 | 13 | 153 | 0.0 | 0.0 | 0.00 | 0.00 | 0.00 | 69 | 1011.6 |
| 20260505030007 | 13 | 153 | 0.0 | 0.0 | 0.00 | 0.00 | 0.00 | 68 | 1011.6 |
| 20260505025531 | 13 | 153 | 0.0 | 0.0 | 0.00 | 0.00 | 0.00 | 66 | 1011.6 |
| 20260505025100 | 13 | 153 | 0.0 | 0.0 | 0.00 | 0.00 | 0.00 | 67 | 1011.6 |
| 20260505024545 | 13 | 153 | 0.0 | 0.0 | 0.00 | 0.00 | 0.00 | 66 | 1011.6 |
| 20260505024059 | 14 | 153 | 0.0 | 0.0 | 0.00 | 0.00 | 0.00 | 66 | 1011.6 |
| 20260505023529 | 14 | 153 | 0.0 | 0.0 | 0.00 | 0.00 | 0.00 | 66 | 1011.6 |
| 20260505023056 | 14 | 153 | 0.0 | 0.0 | 0.00 | 0.00 | 0.00 | 64 | 1011.6 |
| 20260505022528 | 14 | 153 | 0.0 | 0.0 | 0.00 | 0.00 | 0.00 | 65 | 1011.6 |
| 20260505022049 | 14 | 153 | 0.0 | 0.0 | 0.00 | 0.00 | 0.00 | 66 | 1011.6 |
| 20260505021513 | 14 | 153 | 0.0 | 0.0 | 0.00 | 0.00 | 0.00 | 67 | 1011.4 |
| 20260505021044 | 14 | 153 | 0.0 | 1.6 | 0.00 | 0.00 | 0.00 | 67 | 1011.4 |
| 20260505020507 | 14 | 153 | 0.0 | 1.6 | 0.00 | 0.00 | 0.00 | 66 | 1011.4 |
| 20260505020041 | 14 | 153 | 0.0 | 0.0 | 0.00 | 0.00 | 0.00 | 67 | 1011.3 |
| 20260505015551 | 14 | 153 | 0.0 | 0.0 | 0.00 | 0.00 | 0.00 | 65 | 1011.3 |
| 20260505015019 | 14 | 153 | 0.0 | 1.6 | 0.00 | 0.00 | 0.00 | 67 | 1011.3 |
| 20260505014537 | 14 | 153 | 0.0 | 1.6 | 0.00 | 0.00 | 0.00 | 65 | 1011.2 |
| 20260505014058 | 14 | 153 | 0.0 | 0.0 | 0.00 | 0.00 | 0.00 | 66 | 1011.2 |
| 20260505013528 | 14 | 153 | 0.0 | 0.0 | 0.00 | 0.00 | 0.00 | 64 | 1011.2 |
| 20260505013057 | 15 | 153 | 0.0 | 0.0 | 0.00 | 0.00 | 0.00 | 63 | 1011.2 |
| 20260505012520 | 15 | 153 | 0.0 | 0.0 | 0.00 | 0.00 | 0.00 | 66 | 1011.1 |
| 20260505012049 | 15 | 153 | 0.0 | 0.0 | 0.00 | 0.00 | 0.00 | 64 | 1011.1 |
| 20260505011521 | 15 | 153 | 0.0 | 0.0 | 0.00 | 0.00 | 0.00 | 63 | 1011.2 |
| 20260505011045 | 15 | 153 | 0.0 | 0.0 | 0.00 | 0.00 | 0.00 | 62 | 1011.2 |
| 20260505010508 | 15 | 153 | 0.0 | 0.0 | 0.00 | 0.00 | 0.00 | 61 | 1011.2 |
| 20260505010043 | 15 | 153 | 0.0 | 0.0 | 0.00 | 0.00 | 0.00 | 60 | 1011.0 |
| 20260505005509 | 16 | 153 | 0.0 | 0.0 | 0.00 | 0.00 | 0.00 | 59 | 1011.0 |
| 20260505005039 | 16 | 153 | 0.0 | 0.0 | 0.00 | 0.00 | 0.00 | 57 | 1011.0 |
| 20260505004513 | 16 | 153 | 0.0 | 0.0 | 0.00 | 0.00 | 0.00 | 55 | 1010.8 |
| 20260505004038 | 16 | 153 | 0.0 | 1.6 | 0.00 | 0.00 | 0.00 | 54 | 1010.8 |
| 20260505003502 | 16 | 153 | 0.0 | 1.6 | 0.00 | 0.00 | 0.00 | 53 | 1010.8 |
| 20260505003033 | 16 | 153 | 0.0 | 1.6 | 0.00 | 0.00 | 0.00 | 52 | 1010.8 |
| 20260505002600 | 17 | 153 | 0.0 | 0.0 | 0.00 | 0.00 | 0.00 | 51 | 1010.8 |
| 20260505002021 | 17 | 153 | 0.0 | 0.0 | 0.00 | 0.00 | 0.00 | 51 | 1010.8 |
| 20260505001551 | 17 | 153 | 0.0 | 0.0 | 0.00 | 0.00 | 0.00 | 49 | 1010.8 |
| 20260505001028 | 17 | 153 | 0.0 | 0.0 | 0.00 | 0.00 | 0.00 | 50 | 1010.7 |
| 20260505000550 | 17 | 153 | 0.0 | 0.0 | 0.00 | 0.00 | 0.00 | 49 | 1010.7 |
| 20260505000025 | 17 | 153 | 0.0 | 0.0 | 0.00 | 0.00 | 0.00 | 48 | 1010.6 |
| 20260504235552 | 18 | 153 | 0.0 | 0.0 | 0.00 | 0.00 | 0.00 | 47 | 1010.6 |
| 20260504235017 | 18 | 153 | 0.0 | 0.0 | 0.00 | 0.00 | 0.00 | 50 | 1010.6 |
| 20260504234546 | 18 | 153 | 0.0 | 0.0 | 0.00 | 0.00 | 0.00 | 45 | 1010.5 |
| 20260504234014 | 18 | 153 | 0.0 | 4.8 | 0.00 | 0.00 | 0.00 | 47 | 1010.5 |
| 20260504233542 | 18 | 153 | 0.0 | 1.6 | 0.00 | 0.00 | 0.00 | 45 | 1010.5 |
| 20260504233009 | 18 | 28 | 0.0 | 3.2 | 0.00 | 0.00 | 0.00 | 45 | 1010.4 |
| 20260504232543 | 18 | 40 | 0.0 | 8.0 | 0.00 | 0.00 | 0.00 | 47 | 1010.4 |
| 20260504232016 | 19 | 344 | 0.0 | 8.0 | 0.00 | 0.00 | 0.00 | 45 | 1010.4 |
| 20260504231547 | 19 | 36 | 0.0 | 6.4 | 0.00 | 0.00 | 0.00 | 48 | 1010.2 |
| 20260504231014 | 19 | 71 | 0.0 | 11.3 | 0.00 | 0.00 | 0.00 | 46 | 1010.2 |
| 20260504230546 | 19 | 74 | 1.6 | 11.3 | 0.00 | 0.00 | 0.00 | 47 | 1010.2 |
| 20260504230011 | 19 | 279 | 0.0 | 6.4 | 0.00 | 0.00 | 0.00 | 47 | 1010.1 |
| 20260504225542 | 19 | 323 | 0.0 | 8.0 | 0.00 | 0.00 | 0.00 | 49 | 1010.1 |
| 20260504225046 | 20 | 321 | 0.0 | 8.0 | 0.00 | 0.00 | 0.00 | 45 | 1010.1 |
| 20260504224517 | 20 | 292 | 0.0 | 3.2 | 0.00 | 0.00 | 0.00 | 48 | 1010.2 |
| 20260504224046 | 20 | 300 | 0.0 | 11.3 | 0.00 | 0.00 | 0.00 | 47 | 1010.2 |
| 20260504223603 | 20 | 277 | 0.0 | 11.3 | 0.00 | 0.00 | 0.00 | 45 | 1010.2 |
| 20260504223501 | 20 | 277 | 0.0 | 11.3 | 0.00 | 0.00 | 0.00 | 45 | 1010.2 |
| 20260504223030 | 20 | 19 | 0.0 | 6.4 | 0.00 | 0.00 | 0.00 | 44 | 1010.1 |
| 20260504222553 | 20 | 337 | 0.0 | 4.8 | 0.00 | 0.00 | 0.00 | 44 | 1010.1 |
| 20260504222024 | 20 | 294 | 0.0 | 8.0 | 0.00 | 0.00 | 0.00 | 43 | 1010.1 |
| 20260504221553 | 20 | 306 | 0.0 | 8.0 | 0.00 | 0.00 | 0.00 | 44 | 1010.1 |
| 20260504221024 | 20 | 80 | 0.0 | 1.6 | 0.00 | 0.00 | 0.00 | 44 | 1010.1 |
| 20260504220553 | 20 | 80 | 0.0 | 11.3 | 0.00 | 0.00 | 0.00 | 42 | 1010.1 |
| 20260504220015 | 20 | 90 | 1.6 | 11.3 | 0.00 | 0.00 | 0.00 | 41 | 1010.1 |
| 20260504215551 | 21 | 333 | 0.0 | 11.3 | 0.00 | 0.00 | 0.00 | 41 | 1010.1 |
| 20260504215011 | 21 | 34 | 1.6 | 14.5 | 0.00 | 0.00 | 0.00 | 41 | 1010.1 |
| 20260504214542 | 21 | 14 | 0.0 | 14.5 | 0.00 | 0.00 | 0.00 | 41 | 1010.1 |
| 20260504214005 | 21 | 82 | 0.0 | 6.4 | 0.00 | 0.00 | 0.00 | 40 | 1010.1 |
| 20260504213534 | 21 | 88 | 0.0 | 8.0 | 0.00 | 0.00 | 0.00 | 41 | 1010.1 |
| 20260504213003 | 21 | 89 | 0.0 | 4.8 | 0.00 | 0.00 | 0.00 | 39 | 1010.1 |
| 20260504212534 | 21 | 93 | 0.0 | 4.8 | 0.00 | 0.00 | 0.00 | 39 | 1010.1 |
| 20260504212058 | 21 | 240 | 0.0 | 6.4 | 0.00 | 0.00 | 0.00 | 39 | 1010.1 |
| 20260504211528 | 21 | 238 | 0.0 | 12.9 | 0.00 | 0.00 | 0.00 | 39 | 1010.2 |
| 20260504211052 | 21 | 71 | 1.6 | 17.7 | 0.00 | 0.00 | 0.00 | 41 | 1010.2 |
| 20260504210522 | 21 | 51 | 0.0 | 17.7 | 0.00 | 0.00 | 0.00 | 40 | 1010.2 |
| 20260504205518 | 21 | 57 | 0.0 | 12.9 | 0.00 | 0.00 | 0.00 | 40 | 1010.2 |
| 20260504205056 | 21 | 26 | 0.0 | 8.0 | 0.00 | 0.00 | 0.00 | 39 | 1010.2 |
| 20260504204531 | 21 | 23 | 0.0 | 8.0 | 0.00 | 0.00 | 0.00 | 39 | 1010.3 |
| 20260504204050 | 21 | 296 | 0.0 | 9.7 | 0.00 | 0.00 | 0.00 | 36 | 1010.3 |
| 20260504203528 | 21 | 305 | 0.0 | 9.7 | 0.00 | 0.00 | 0.00 | 35 | 1010.3 |
| 20260504203131 | 22 | 35 | 0.0 | 14.5 | 0.00 | 0.00 | 0.00 | 33 | 1010.3 |
| 20260504202530 | 22 | 111 | 1.6 | 16.1 | 0.00 | 0.00 | 0.00 | 33 | 1010.7 |
| 20260504202100 | 22 | 295 | 0.0 | 16.1 | 0.00 | 0.00 | 0.00 | 34 | 1010.7 |
| 20260504201530 | 21 | 281 | 1.6 | 16.1 | 0.00 | 0.00 | 0.00 | 32 | 1010.8 |
| 20260504201004 | 21 | 123 | 1.6 | 14.5 | 0.00 | 0.00 | 0.00 | 32 | 1010.8 |
| 20260504200536 | 21 | 51 | 0.0 | 9.7 | 0.00 | 0.00 | 0.00 | 31 | 1010.8 |
| 20260504200005 | 22 | 128 | 0.0 | 8.0 | 0.00 | 0.00 | 0.00 | 31 | 1010.9 |
| 20260504195536 | 22 | 192 | 0.0 | 12.9 | 0.00 | 0.00 | 0.00 | 32 | 1010.9 |
| 20260504195003 | 22 | 294 | 1.6 | 12.9 | 0.00 | 0.00 | 0.00 | 32 | 1010.9 |
| 20260504194536 | 22 | 17 | 0.0 | 9.7 | 0.00 | 0.00 | 0.00 | 32 | 1011.1 |
| 20260504194052 | 21 | 360 | 0.0 | 9.7 | 0.00 | 0.00 | 0.00 | 33 | 1011.1 |
| 20260504193529 | 21 | 300 | 3.2 | 9.7 | 0.00 | 0.00 | 0.00 | 31 | 1011.1 |
| 20260504193055 | 22 | 63 | 1.6 | 9.7 | 0.00 | 0.00 | 0.00 | 31 | 1011.1 |
| 20260504192520 | 22 | 309 | 0.0 | 9.7 | 0.00 | 0.00 | 0.00 | 30 | 1011.4 |
| 20260504192048 | 22 | 288 | 0.0 | 11.3 | 0.00 | 0.00 | 0.00 | 36 | 1011.4 |
| 20260504191514 | 22 | 337 | 1.6 | 11.3 | 0.00 | 0.00 | 0.00 | 31 | 1011.4 |
| 20260504191034 | 22 | 5 | 0.0 | 12.9 | 0.00 | 0.00 | 0.00 | 33 | 1011.4 |
| 20260504190506 | 22 | 238 | 0.0 | 12.9 | 0.00 | 0.00 | 0.00 | 30 | 1011.4 |
| 20260504190026 | 22 | 136 | 1.6 | 12.9 | 0.00 | 0.00 | 0.00 | 33 | 1011.5 |
| 20260504185553 | 22 | 348 | 0.0 | 6.4 | 0.00 | 0.00 | 0.00 | 37 | 1011.5 |
| 20260504185022 | 22 | 345 | 0.0 | 6.4 | 0.00 | 0.00 | 0.00 | 35 | 1011.5 |
| 20260504184550 | 22 | 344 | 1.6 | 6.4 | 0.00 | 0.00 | 0.00 | 34 | 1011.5 |
| 20260504184019 | 22 | 346 | 0.0 | 11.3 | 0.00 | 0.00 | 0.00 | 35 | 1011.7 |
| 20260504183538 | 22 | 245 | 1.6 | 11.3 | 0.00 | 0.00 | 0.00 | 32 | 1011.7 |
| 20260504183010 | 22 | 160 | 0.0 | 3.2 | 0.00 | 0.00 | 0.00 | 33 | 1011.9 |
| 20260504182537 | 22 | 157 | 0.0 | 3.2 | 0.00 | 0.00 | 0.00 | 33 | 1011.9 |
| 20260504182100 | 22 | 316 | 0.0 | 6.4 | 0.00 | 0.00 | 0.00 | 34 | 1011.9 |
| 20260504182001 | 22 | 302 | 0.0 | 6.4 | 0.00 | 0.00 | 0.00 | 33 | 1011.9 |
| 20260504181534 | 22 | 302 | 0.0 | 8.0 | 0.00 | 0.00 | 0.00 | 32 | 1012.0 |
| 20260504181056 | 23 | 299 | 0.0 | 11.3 | 0.00 | 0.00 | 0.00 | 30 | 1012.0 |
| 20260504180532 | 23 | 67 | 1.6 | 11.3 | 0.00 | 0.00 | 0.00 | 32 | 1012.0 |
| 20260504180109 | 22 | 117 | 0.0 | 3.2 | 0.00 | 0.00 | 0.00 | 34 | 1012.0 |
| 20260504175521 | 22 | 280 | 0.0 | 0.0 | 0.00 | 0.00 | 0.00 | 33 | 1012.2 |
| 20260504175044 | 22 | 280 | 0.0 | 0.0 | 0.00 | 0.00 | 0.00 | 34 | 1012.2 |
| 20260504174519 | 22 | 281 | 0.0 | 1.6 | 0.00 | 0.00 | 0.00 | 34 | 1012.6 |
| 20260504174038 | 22 | 282 | 0.0 | 1.6 | 0.00 | 0.00 | 0.00 | 33 | 1012.6 |
| 20260504173508 | 22 | 282 | 0.0 | 0.0 | 0.00 | 0.00 | 0.00 | 29 | 1012.6 |
| 20260504173040 | 22 | 283 | 0.0 | 0.0 | 0.00 | 0.00 | 0.00 | 29 | 1012.7 |
| 20260504172502 | 21 | 283 | 0.0 | 1.6 | 0.00 | 0.00 | 0.00 | 33 | 1012.7 |
| 20260504172033 | 21 | 283 | 0.0 | 0.0 | 0.00 | 0.00 | 0.00 | 31 | 1012.7 |
| 20260504171556 | 21 | 279 | 0.0 | 0.0 | 0.00 | 0.00 | 0.00 | 34 | 1012.7 |
| 20260504171020 | 20 | 279 | 0.0 | 3.2 | 0.00 | 0.00 | 0.00 | 30 | 1012.8 |
| 20260504170544 | 21 | 279 | 0.0 | 3.2 | 0.00 | 0.00 | 0.00 | 31 | 1012.8 |
| 20260504160106 | 19 | 278 | 0.0 | 0.0 | 0.00 | 0.00 | 0.00 | 38 | 1013.9 |
| 20260504151039 | 17 | 300 | 0.0 | 1.6 | 0.00 | 0.00 | 0.00 | 44 | 1014.5 |
| 20260504150508 | 17 | 300 | 0.0 | 0.0 | 0.00 | 0.00 | 0.00 | 43 | 1014.5 |
| 20260504141027 | 15 | 300 | 0.0 | 0.0 | 0.00 | 0.00 | 0.00 | 56 | 1014.8 |
| 20260504140558 | 15 | 300 | 0.0 | 0.0 | 0.00 | 0.00 | 0.00 | 58 | 1014.8 |
| 20260504130529 | 8 | 300 | 0.0 | 0.0 | 0.00 | 0.00 | 0.00 | 81 | 1014.7 |